Vorticity
1 1 8 6 4 5 7 5 5 5 5 4 6 9 11 10 11 9 10 10 10 10 9 6 3 6 8 6 3 7 5 2 3 5 7 10 9 9 9 8 3 1 3 3
4 3 4 3 3 7 9 8 9 10 10 5 6 6 9 7 5 8 10 7 6 7 6 9 12 12 9 5 5 3 -1 2 6 7 8 10 9 6 8 9 7 5 5 4
5 2 7 16 16 12 11 10 9 7 8 3 2 8 2 8 10 8 5 3 6 7 7 7 7 7 8 9 11 10 11 8 6 5 4 5 5 7 9 7 8 8 8 8
11 19 13 11 10 5 9 7 6 4 3 6 5 5 7 8 8 7 6 6 6 6 8 8 6 12 10 8 3 3 4 4 5 4 6 8 5 6 10 7 10 5 5 7
9 6 3 8 8 6 8 8 7 4 2 9 13 1 10 5 6 7 6 11 9 11 3 -9 -1 7 4 4 5 13 9 10 12 9 9 6 5 4 4 4 2 3 5 7
5 8 9 7 7 5 3 5 1 3 5 6 9 4 10 8 9 12 7 6 9 -4 -7 -4 10 14 13 13 10 1 3 4 5 8 6 9 9 5 4 2 3 3 1 -1
9 7 5 6 8 5 4 3 3 6 7 6 7 -4 8 6 3 7 11 5 -8 -6 9 14 14 8 11 9 12 12 9 6 11 7 5 6 10 6 7 9 4 -1 2 2
4 4 5 5 9 8 11 12 12 17 11 5 2 -6 3 4 4 6 5 -3 -0 5 10 12 10 10 11 9 9 11 8 9 7 6 7 11 -1 5 14 4 2 -1 8 13
8 10 15 17 9 5 5 4 8 5 -1 -2 4 4 4 10 8 10 10 10 15 14 12 10 12 6 4 9 8 8 5 7 6 7 1 3 4 3 4 3 14 -6 5 5
5 12 5 6 3 1 2 7 3 7 3 7 5 8 6 11 10 12 11 9 9 8 7 9 10 10 7 5 5 3 4 6 7 8 9 8 8 10 8 15 5 12 5 5
13 10 1 1 4 9 10 6 12 17 7 8 7 3 6 6 6 7 10 9 9 8 6 6 5 3 5 8 7 5 5 4 4 3 7 8 8 7 7 9 9 4 -0 8
7 -0 -4 -6 8 1 7 5 5 4 8 9 9 -12 6 9 14 13 10 13 9 6 5 4 6 7 8 9 8 7 7 5 3 3 3 5 6 7 8 8 7 8 8 7
6 8 4 2 5 5 4 10 7 6 3 2 5 6 14 10 8 9 7 7 11 12 12 10 6 7 8 7 4 4 4 5 4 5 6 9 9 9 8 8 9 10 10 10
4 5 9 5 14 11 8 6 6 11 2 13 4 5 5 10 8 10 10 8 6 9 10 11 10 8 8 8 8 7 8 9 9 9 9 10 11 12 12 12 12 13 13 13
3 5 8 13 12 4 6 9 8 5 15 5 14 -4 20 6 11 9 10 15 12 9 9 10 10 7 6 7 8 10 10 8 9 10 11 10 10 11 12 13 16 19 22 25
1 2 7 4 11 4 -2 7 14 11 8 5 9 4 14 18 14 10 10 7 8 10 7 6 5 8 9 6 4 5 8 9 11 10 9 11 15 19 24 27 27 27 25 22
-1 4 11 -1 9 11 -7 18 13 10 12 12 10 13 6 6 12 10 12 10 10 8 5 7 6 6 7 7 8 12 10 8 10 14 21 27 26 23 21 18 15 14 10 8
-3 13 13 7 8 -8 10 10 7 14 12 8 9 10 10 14 10 5 5 7 6 6 8 7 6 5 7 10 10 8 10 15 24 27 24 20 15 14 14 12 11 7 5 5
-1 14 6 -2 16 8 -12 18 20 14 9 9 10 8 10 7 6 7 6 5 8 8 8 7 7 10 11 10 10 13 25 28 21 18 15 13 12 12 10 9 8 8 8 6
-3 2 20 17 11 -2 21 14 11 13 10 15 16 13 6 7 6 10 5 7 8 6 7 9 12 10 11 16 27 28 20 16 14 12 11 9 8 8 8 9 8 8 10 8
10 14 13 18 9 -5 17 11 16 12 18 15 7 8 7 6 6 6 6 6 7 9 10 10 12 15 23 27 20 18 16 13 10 8 7 8 9 10 9 10 9 5 12 10
21 15 6 8 6 7 18 12 10 16 6 6 6 6 6 7 7 6 6 8 10 11 12 15 20 24 19 19 15 12 11 10 9 9 9 9 9 9 9 6 8 10 10 14
6 17 13 7 15 12 12 16 11 4 5 6 6 7 7 8 7 7 10 10 11 14 19 21 18 17 15 11 11 10 10 10 10 11 11 10 7 6 8 10 9 9 12 15
7 13 8 14 10 11 10 10 10 10 7 8 6 8 7 10 14 15 13 14 20 23 18 17 15 13 12 11 11 11 12 11 9 8 7 7 8 10 10 9 10 12 15 14
7 4 9 9 10 15 12 6 6 8 11 12 14 15 13 13 13 22 25 24 22 17 14 13 12 11 11 11 10 9 7 7 7 8 10 12 12 9 10 11 15 15 12 10
10 7 10 10 10 9 8 9 14 14 15 15 14 13 20 25 24 21 21 22 18 14 13 12 9 10 9 8 6 5 7 10 11 11 12 11 9 12 13 15 13 11 14 17
Height
5816 5815 5818 5815 5814 5814 5813 5812 5811 5814 5812 5809 5810 5808 5810 5808 5807 5805 5806 5805 5803 5802 5801 5801 5799 5797 5794 5792 5792 5792 5790 5790 5788 5786 5786 5784 5781 5781 5781 5779 5778 5776 5775 5773
5809 5808 5810 5808 5807 5806 5805 5803 5805 5803 5804 5799 5798 5798 5800 5799 5798 5795 5794 5793 5794 5793 5793 5792 5792 5790 5789 5787 5784 5782 5780 5779 5779 5778 5775 5775 5774 5772 5770 5769 5768 5766 5764 5763
5798 5800 5800 5800 5799 5798 5795 5796 5795 5794 5794 5790 5789 5787 5791 5790 5787 5786 5784 5783 5782 5782 5781 5781 5780 5780 5779 5777 5776 5773 5771 5769 5765 5764 5764 5762 5761 5761 5760 5757 5755 5754 5753 5751
5789 5792 5789 5790 5792 5790 5789 5790 5788 5788 5786 5785 5784 5782 5782 5780 5778 5778 5776 5776 5775 5773 5772 5771 5770 5770 5769 5767 5765 5763 5762 5760 5756 5753 5749 5748 5746 5745 5745 5744 5742 5740 5739 5738
5781 5781 5782 5781 5781 5779 5780 5779 5779 5776 5775 5774 5774 5773 5770 5769 5771 5771 5769 5767 5765 5763 5761 5762 5761 5758 5756 5753 5751 5749 5747 5744 5742 5740 5738 5735 5732 5730 5728 5726 5725 5724 5722 5720
5772 5771 5772 5772 5772 5771 5770 5769 5768 5766 5765 5762 5769 5763 5757 5760 5758 5756 5755 5754 5753 5750 5749 5749 5746 5743 5741 5738 5735 5732 5730 5729 5728 5727 5725 5721 5719 5717 5714 5712 5709 5707 5705 5703
5761 5762 5762 5762 5761 5762 5760 5759 5758 5756 5757 5755 5754 5751 5750 5748 5746 5745 5745 5743 5741 5738 5735 5731 5729 5726 5723 5721 5720 5718 5716 5715 5712 5709 5707 5705 5704 5702 5699 5697 5695 5693 5690 5687
5749 5752 5751 5752 5751 5749 5749 5749 5748 5747 5746 5746 5745 5740 5743 5738 5735 5734 5732 5731 5728 5725 5723 5720 5716 5711 5708 5706 5704 5701 5699 5697 5695 5693 5691 5690 5689 5687 5684 5682 5679 5676 5675 5671
5738 5739 5740 5740 5740 5740 5738 5737 5738 5733 5732 5730 5730 5728 5729 5726 5724 5721 5720 5716 5713 5711 5708 5704 5701 5697 5693 5690 5687 5684 5680 5679 5677 5676 5674 5672 5669 5668 5665 5662 5660 5658 5654 5651
5727 5726 5728 5728 5728 5727 5727 5726 5722 5719 5715 5710 5714 5715 5711 5714 5712 5709 5706 5704 5700 5696 5692 5688 5684 5681 5678 5673 5669 5666 5663 5661 5660 5658 5656 5654 5651 5648 5646 5643 5641 5636 5633 5630
5714 5713 5716 5714 5714 5714 5713 5711 5710 5709 5702 5696 5696 5698 5697 5697 5697 5695 5692 5689 5685 5680 5677 5674 5671 5667 5662 5657 5653 5650 5646 5643 5641 5639 5636 5633 5630 5627 5624 5621 5619 5616 5612 5608
5702 5700 5698 5701 5698 5698 5700 5699 5698 5692 5691 5685 5678 5683 5681 5682 5679 5676 5676 5673 5668 5664 5660 5656 5653 5649 5645 5641 5637 5634 5631 5627 5623 5619 5616 5613 5610 5606 5602 5598 5594 5591 5586 5582
5688 5684 5686 5685 5688 5687 5685 5686 5684 5678 5674 5668 5668 5668 5669 5666 5661 5660 5656 5653 5650 5646 5642 5639 5637 5633 5629 5626 5622 5617 5613 5608 5603 5598 5594 5590 5586 5581 5577 5573 5569 5564 5560 5556
5670 5669 5667 5670 5672 5668 5668 5669 5667 5662 5656 5658 5653 5656 5653 5649 5647 5643 5639 5634 5630 5629 5626 5621 5620 5617 5613 5609 5603 5598 5592 5587 5581 5576 5572 5567 5561 5555 5550 5545 5541 5536 5531 5527
5654 5652 5651 5653 5654 5651 5653 5654 5648 5643 5642 5636 5641 5639 5642 5636 5630 5625 5620 5617 5615 5610 5609 5606 5603 5599 5594 5589 5583 5577 5572 5566 5561 5555 5549 5543 5537 5530 5524 5518 5513 5508 5503 5499
5639 5635 5635 5634 5636 5635 5634 5637 5631 5630 5626 5620 5619 5616 5625 5618 5613 5608 5604 5601 5598 5596 5593 5589 5585 5580 5575 5570 5563 5555 5548 5542 5536 5530 5524 5518 5511 5504 5499 5494 5489 5485 5481 5477
5625 5621 5621 5616 5619 5616 5611 5622 5619 5615 5615 5609 5601 5604 5600 5599 5594 5592 5590 5588 5583 5580 5576 5572 5566 5560 5553 5546 5539 5532 5526 5519 5512 5506 5499 5494 5488 5482 5478 5474 5470 5466 5462 5458
5608 5606 5603 5599 5599 5591 5600 5602 5602 5597 5598 5593 5587 5582 5582 5580 5578 5576 5574 5570 5565 5562 5557 5551 5545 5539 5532 5526 5519 5512 5504 5496 5489 5482 5477 5473 5469 5466 5462 5458 5453 5449 5444 5439
5594 5593 5588 5582 5579 5579 5583 5583 5582 5577 5580 5577 5569 5566 5562 5560 5559 5562 5554 5549 5546 5541 5536 5531 5525 5519 5513 5505 5498 5490 5482 5475 5469 5465 5460 5456 5452 5448 5444 5440 5435 5430 5425 5419
5579 5576 5572 5566 5559 5556 5568 5566 5561 5556 5551 5563 5556 5546 5543 5544 5541 5546 5531 5532 5526 5521 5515 5509 5503 5499 5492 5484 5476 5469 5463 5457 5452 5447 5443 5439 5435 5431 5426 5421 5417 5412 5406 5400
5559 5555 5552 5550 5541 5538 5547 5543 5542 5536 5542 5538 5534 5532 5530 5528 5526 5522 5517 5512 5507 5501 5495 5488 5482 5475 5468 5462 5457 5452 5448 5443 5438 5433 5427 5423 5419 5414 5410 5405 5399 5393 5387 5380
5541 5540 5539 5534 5526 5522 5532 5520 5522 5522 5516 5516 5516 5514 5511 5511 5508 5503 5499 5493 5486 5480 5474 5467 5460 5454 5450 5445 5441 5436 5432 5428 5424 5419 5414 5408 5403 5397 5392 5388 5382 5374 5367 5361
5522 5527 5524 5521 5516 5510 5503 5502 5501 5502 5500 5498 5496 5495 5492 5489 5488 5484 5480 5473 5466 5458 5452 5446 5441 5437 5433 5429 5425 5421 5417 5413 5409 5404 5399 5394 5389 5383 5376 5371 5364 5358 5350 5343
5513 5515 5508 5503 5505 5494 5485 5484 5482 5484 5483 5481 5478 5474 5470 5468 5467 5464 5458 5454 5447 5440 5432 5429 5425 5421 5417 5413 5409 5406 5402 5398 5394 5389 5383 5378 5373 5367 5360 5355 5348 5341 5334 5328
5504 5502 5497 5488 5486 5478 5468 5466 5466 5463 5463 5463 5457 5453 5451 5448 5446 5442 5438 5433 5427 5423 5418 5413 5410 5406 5402 5399 5394 5390 5386 5382 5378 5373 5368 5362 5357 5351 5345 5339 5332 5325 5319 5312
5493 5492 5476 5469 5469 5457 5453 5451 5448 5448 5447 5441 5437 5435 5433 5429 5426 5422 5418 5415 5411 5408 5404 5400 5395 5391 5387 5383 5379 5374 5370 5365 5360 5355 5350 5345 5340 5334 5329 5323 5319 5310 5304 5298